Regional Weather Roundup
Issued by NWS San Diego, CA

Home | Current Version | Previous Version | Text Only | Print | Product List | Glossary On
Versions: 1 2 3 4 5 6 7 8 9 10 11 12 13 14 15 16 17 18 19 20 21 22 23 24 25 26 27 28 29 30 31 32 33 34 35 36 37 38 39 40 41 42 43 44 45 46 47 48 49 50
000
ASUS46 KSGX 201810
RWRSGX

SAN DIEGO HOURLY WEATHER ROUNDUP
NATIONAL WEATHER SERVICE SAN DIEGO CA
1000 AM PST SAT DEC 20 2014

NOTE: "FAIR" INDICATES FEW OR NO CLOUDS BELOW 12,000 FEET WITH NO
SIGNIFICANT WEATHER AND/OR OBSTRUCTIONS TO VISIBILITY.

CAZ042-043-060-061-PZZ750-775-201900-

GREATER SAN DIEGO AREA

CITY           SKY/WX    TMP DP  RH WIND       PRES   REMARKS
LINDBERGH FLD  CLOUDY    61  48  63 CALM      30.22R
POINT LOMA       N/A     56  49  77 E3          N/A
NATIONAL CITY    N/A     57  53  85 CALM      30.22S
CHULA VISTA      N/A     56  52  86 CALM      30.15R
IMPERIAL BEACH CLOUDY    59  50  72 E7        30.22R
BROWN FIELD    CLOUDY    56  48  74 SE6       30.21R
MIRAMAR MCAS   CLOUDY    59  49  69 E3        30.21R
MONTGOMERY FLD CLOUDY    57  50  77 CALM      30.21R

$$

NORTH SAN DIEGO COUNTY

CITY           SKY/WX    TMP DP  RH WIND       PRES   REMARKS
CAMP PENDLETON CLOUDY    53  47  79 CALM      30.21S HAZE
OCEANSIDE AP   CLOUDY    55  47  74 NE6       30.20R
OCEANSIDE HBR    N/A     55  49  80 NE3       30.24R
VISTA            N/A     53  49  87 CALM      30.19R
CARLSBAD       CLOUDY    58  49  72 E3        30.20R
DEL MAR          N/A     57  54  89 CALM      30.23R
LA JOLLA SCRIP   N/A     58  53  84 CALM      30.19R
FALLBROOK        N/A     55  52  89 CALM      30.22S
ESCONDIDO        N/A     55  50  84 CALM      30.24R
SAN MARCOS       N/A     55  50  84 E2        30.20R
POWAY            N/A     52  50  93 CALM      30.24R

$$

EAST SAN DIEGO COUNTY

CITY           SKY/WX    TMP DP  RH WIND       PRES   REMARKS
RAMONA         CLOUDY    52  47  83 CALM      30.21R
SANTEE LAKES     N/A     51  49  93 CALM      30.24R
LA MESA          N/A     55  47  75 NE6       30.16R
JAMUL            N/A     51  50  95 CALM      30.22R
DESCANSO N       N/A     51  42  73 CALM      30.14R
MT. LAGUNA OBS   N/A     47  30  51 NW5       29.77R
CAMPO            N/A     50  42  74 CALM      30.16S

$$

ORANGE COUNTY AND THE LOS ANGELES BASIN

CITY           SKY/WX    TMP DP  RH WIND       PRES   REMARKS
JOHN WAYNE AP  PTSUNNY   61  50  67 CALM      30.20S
LAGUNA BEACH     N/A     58  55  90 CALM      30.16S
LAKE FOREST FR   N/A     58  47  68 CALM      30.12S
SANTA ANA        N/A     60  55  82 CALM      30.15S
HUNTINGTON BCH   N/A     58  53  85 CALM      30.22R
LOS ALAMITOS   CLOUDY    57  51  78 NE2       30.20S
FULLERTON      PTSUNNY   59  50  72 E5        30.19S
LONG BEACH     PTSUNNY   59  51  75 CALM      30.20S
L.A. AP        PTSUNNY   58  49  72 SE5       30.20S
L.A. DOWNTOWN  MOSUNNY   59  46  62 VRB3      30.20R

$$

THE INLAND EMPIRE

CITY           SKY/WX    TMP DP  RH WIND       PRES   REMARKS
CORONA         PTSUNNY   52  50  93 CALM      30.22S
CHINO          PTSUNNY   53  47  79 S3        30.22S HAZE
ONTARIO        PTSUNNY   55  43  63 CALM      30.20S
SAN BERNARDINO CLOUDY    52  41  66 SW7       30.21S
RIVERSIDE AP   PTSUNNY   52  45  77 CALM      30.21R
RIV CYN CREST    N/A     55  53  95 S2          N/A
MORENO VALLEY    N/A     52  51  93 CALM      29.39R
MARCH ARB      PTSUNNY   49  49  99 CALM      30.21R
HORSETHIEF CYN   N/A     51  45  81 E5        30.22R
PERRIS           N/A     49  48  95 CALM      30.20F
MENIFEE          N/A     50  49  95 CALM      30.31S
HEMET EAST       N/A     53  40  61 CALM      30.22S
FRENCH VALLEY  FAIR      50  43  76 CALM      30.21S
TEMECULA         N/A     49  47  94 CALM      30.19S

$$

SAN BERNARDINO AND RIVERSIDE COUNTY MOUNTAINS

CITY           SKY/WX    TMP DP  RH WIND       PRES   REMARKS
BIG BEAR AP    PTSUNNY   41  32  70 SW8       30.23S
ANGELUS OAKS     N/A     45  35  68 CALM      30.20S
PINE COVE        N/A     43  29  57 NW3       30.22R

$$

SOUTHERN DESERT INCLUDING THE COACHELLA VALLEY

CITY           SKY/WX    TMP DP  RH WIND       PRES   REMARKS
PALM SPRINGS   PTSUNNY   60  41  49 CALM      30.19F
THOUSAND PALMS   N/A     57  44  62 S2        30.15S
PALM DESERT      N/A     60  45  57 CALM      30.46S
THERMAL        MOSUNNY   60  43  53 N3        30.17S
BLYTHE         PTSUNNY   51  44  77 SW6       30.19S
IMPERIAL AP    MOSUNNY   57  45  64 VRB3      30.18R
EL CENTRO NAS  PTSUNNY   59  45  59 N5        30.18R
YUMA AZ        CLOUDY    58  46  64 NE3       30.18R
MEXICALI       CLOUDY    54  45  71 N6        30.20

$$

UPPER DESERT

CITY           SKY/WX    TMP DP  RH WIND       PRES   REMARKS
VICTORVILLE AP   N/A     48  43  81 SW3       30.19S
HESPERIA         N/A     48  40  74 CALM      30.36R
APPLE VALLEY     N/A     47  39  73 CALM      30.22S
PALMDALE       PTSUNNY   47  41  80 CALM      30.19F
LANCASTER      PTSUNNY   45  39  79 SE3       30.19F
EDWARDS AFB    CLOUDY    43  41  93 SE2       30.18F
DAGGETT        PTSUNNY   47  40  76 NW3       30.19F
29 PALMS N     PTSUNNY   47  38  71 N3        30.25F
NEEDLES        PTSUNNY   54  40  59 CALM      30.19F

$$

REGIONAL REPORTS

CITY           SKY/WX    TMP DP  RH WIND       PRES   REMARKS
SANTA BARBARA  PTSUNNY   63  55  75 SE5       30.17S
SANDBERG       CLOUDY    50  42  74 N14       30.22R
MT. WILSON       N/A     50  37  62 MISG        N/A
LAS VEGAS NV   CLOUDY    50  37  61 S3        30.16S
PHOENIX AZ     MOSUNNY   58  38  47 CALM      30.16R
TIJUANA        CLOUDY    55  45  67 SE3       30.24R
ENSENADA NW      N/A     60  32  35 CALM      30.18S

$$

OFFSHORE ISLANDS

CITY           SKY/WX    TMP DP  RH WIND       PRES   REMARKS
CATALINA ARPT  PTSUNNY   54  51  90 NW8       30.21S
SAN NICOLAS IS PTSUNNY  N/A N/A N/A NW14      30.20S

$$

MARINE AND OFFSHORE BUOY REPORTS

STATION/POSITION SKY/WX   TEMP    WIND        PRES    SWELL
                          AIR SEA DIR/SP/G            HT/PER/DIR
                          (F)     (DEG/KT/KT) (MB)    (FT/S/D)
TANNER BANKS               63 64  300/  8/ 12 1023.0R  11/300/19
S CLEMENTE BASIN           62 65  340/  8/ 10 1022.5R   5/300/19
SAN NICOLAS IS.               63                N/A    11/300/18
SO. S. ROSA ISLA           62 62  310/  6/ 10 1022.1R  11/19
W. S. BARBARA CH           62 63  310/ 10/ 12 1021.9R  11/300/17
S. MONICA BASIN            62 64  330/  2/  4 1022.8R   3/240/19
S PEDRO CHANNEL               64                N/A     2/270/20
DANA POINT                    64                N/A     3/280/13
CMP PENDLETON NS              64                N/A     2/240/13
OCEANSIDE OFFSHR              64                N/A     2/260/12
TORREY PINES OTR              65                N/A     3/280/18
LA JOLLA 1                 60 63  100/  4/  6 1023.1F
MISSION BAY BUOY              64                N/A     3/280/20
SAN DIEGO BAY                 64              1023.7S
POINT LOMA SOUTH              65                N/A     3/270/18

$$




USA.gov is the U.S. government's official web portal to all federal, state and local government web resources and services.